Preview of NWS' New Version of Forecast
This preview is not operational and should not be used for support decisions.

Regional Weather Roundup (RWR)

Issued by National Weather Service (NWS)

                            
000
ASUS43 KDTX 190401
RWRMI 
MICHIGAN HOURLY REGIONAL WEATHER ROUNDUP
NATIONAL WEATHER SERVICE DETROIT/PONTIAC MI
1200 AM EDT FRI APR 19 2019

NOTE: "FAIR" INDICATES FEW OR NO CLOUDS BELOW 12,000 FEET WITH NO
SIGNIFICANT WEATHER AND/OR OBSTRUCTION TO VISIBILITY.

MIZ047>049-052>055-059>063-066>070-074>076-081>083-190500-
SOUTHEAST LOWER MICHIGAN
  
CITY           SKY/WX    TMP DP  RH WIND       PRES   REMARKS
ADRIAN         LGT RAIN  45  41  86 N9        29.68S                  
ALMA           CLOUDY    43  38  84 NW7       29.70S                  
ANN ARBOR      LGT RAIN  47  44  90 W8        29.66S                  
BAD AXE        CLOUDY    43  42  96 NW6       29.66S FOG              
CARO           CLOUDY    44  41  90 NW13      29.67F FOG              
DETROIT CITY   LGT RAIN  52  48  86 NW7       29.64F                  
DETROIT        LGT RAIN  51  46  83 NW9       29.65S                  
FLINT          CLOUDY    44  39  82 NW10      29.69S                  
GROSSE ILE     DRIZZLE   52  49  89 NW8       29.64F                  
HILLSDALE      LGT RAIN  42  38  87 NW12      29.67F                  
HOWELL         LGT RAIN  43  40  88 NW10G18   29.68S                  

CITY           SKY/WX    TMP DP  RH WIND       PRES   REMARKS
JACKSON        LGT RAIN  42  40  92 NW8       29.68F                  
LAMBERTVILLE   RAIN      50  48  94 NW8       29.66F                  
LANSING        CLOUDY    41  38  89 NW9       29.70F                  
LAPEER         CLOUDY    46  44  94 NW8       29.67R                  
MASON          CLOUDY    42  39  87 NW7       29.69F                  
MONROE         RAIN      51  50  99 NW14      29.65S                  
PONTIAC        LGT RAIN  47  46  97 NW12      29.65R                  
PORT HOPE        N/A     41  40  96 NW8       29.65S                  
PORT HURON     LGT RAIN  50  46  87 CALM      29.65S                  
TRI CITIES     CLOUDY    43  39  86 NW10      29.69S                  
MIDLAND        CLOUDY    43  38  82 NW6       29.68S                  
TROY           LGT RAIN  50  44  81 NW8       29.68R                  
SAGINAW HB     CLOUDY    45  41  87 NW12      29.68F                  
$$
MIZ043>046-050>051-056>058-064>065-071>073-077>080-190500-
SOUTHWEST LOWER MICHIGAN
  
CITY           SKY/WX    TMP DP  RH WIND       PRES   REMARKS
BATTLE CREEK   CLOUDY    42  37  82 N9        29.71F                  
BENTON HARBOR  MOCLDY    40  37  89 VRB5      29.74F                  
BIG RAPIDS     CLOUDY    39  37  93 N9        29.70S WCI  32          
COLDWATER      DRIZZLE   42  40  94 N12       29.71S                  
FREMONT        CLOUDY    40  37  90 N12G21    29.72S WCI  33          
HOLLAND        CLOUDY    41  37  86 N6        29.72F                  
GRAND RAPIDS   CLOUDY    41  37  86 NW12      29.71F                  
IONIA          CLOUDY    41  36  82 NW6       29.70F                  
KALAMAZOO      CLOUDY    41  37  86 NW10      29.71F                  
LUDINGTON      CLOUDY    39  37  95 N9G18     29.75R FOG     WCI  32  
MARSHALL       CLOUDY    42  42 100 NW6       29.70F                  
MOUNT PLEASANT CLOUDY    41  38  89 NW8       29.70R                  
MUSKEGON       CLOUDY    42  35  76 N10       29.73F                  
SOUTH HAVEN    CLOUDY    40  37  92 N9        29.74F WCI  33          
$$
MIZ016>042-190500-
NORTHERN LOWER MICHIGAN
  
CITY           SKY/WX    TMP DP  RH WIND       PRES   REMARKS
ALPENA         CLOUDY    39  38  96 N13       29.70S WCI  31          
BEAVER ISLAND  CLOUDY    38  36  92 N12G20    29.77S WCI  31          
BELLAIRE       CLOUDY    38  37  93 N7        29.74S FOG     WCI  33  
CADILLAC       CLOUDY    38  36  94 N8        29.69S FOG     WCI  32  
CHARLEVOIX     CLOUDY    37  36  97 N8        29.78S FOG     WCI  30  
FRANKFORT      CLOUDY    41  37  85 N12G17    29.76S FOG              
HARBOR SPRINGS CLOUDY    38  37  97 N7        29.74S FOG     WCI  32  
HOUGHTON LAKE  CLOUDY    37  35  92 NW8       29.69F WCI  31          
MANISTEE       LGT RAIN  38  37  97 N6        29.75F WCI  33          
OSCODA         LGT RAIN  41  41 100 NW6       29.66F                  
PELLSTON       LGT RAIN  38  37  97 N9        29.75R FOG     WCI  31  
ROGERS CITY    MIX PCPN  37  36  97 NW9G18    29.72F WCI  30          
TRAVERSE CITY  CLOUDY    39  37  92 N13G21    29.73F FOG     WCI  31  
$$
MIZ007>008-015-190500-
EASTERN UPPER MICHIGAN
  
CITY           SKY/WX    TMP DP  RH WIND       PRES   REMARKS
KINROSS        CLOUDY    37  35  92 N12       29.75R WCI  29          
MACKINAC ISLAN CLOUDY    37  37 100 N10G16    29.75R WCI  29          
NEWBERRY       CLOUDY    37  35  92 N10G21    29.78S WCI  30          
S. S. MARIE    CLOUDY    42  35  76 N9        29.74S                  
MUNISING         N/A     36  32  85 NE9       29.84S WCI  29          
$$
MIZ004>006-011>014-085-190500-
CENTRAL UPPER MICHIGAN
  
CITY           SKY/WX    TMP DP  RH WIND       PRES   REMARKS
MANISTIQUE     CLOUDY    39  34  80 N12       29.79S WCI  32          
ESCANABA       FAIR      39  35  86 N9G16     29.83F WCI  33          
MENOMINEE      CLOUDY    41  37  86 N13       29.84F                  
SAWYER-GWINN   CLOUDY    39  33  79 N16       29.85S WCI  30          
$$
MIZ001>003-009>011-084-190500-
WESTERN UPPER MICHIGAN
  
CITY           SKY/WX    TMP DP  RH WIND       PRES   REMARKS
IRON MOUNTAIN  CLOUDY    40  34  79 N13       29.85F WCI  32          
HOUGHTON       FAIR      32  27  81 NW6       29.90F WCI  26          
COPPER HARBOR    N/A     31  29  92 CALM      29.90F                  
IRONWOOD       FOG       31  30  96 SW5       29.95F VSB 1/2 WCI  26  
$$

ABBREVIATIONS USED IN REMARKS
   TC - TEMPERATURE IN CELSIUS
  WCI - WIND CHILL INDEX
   HX - HEAT INDEX
  VSB - VISIBILITY